Simultaneous Nadir Overpasses (SNOs) Predictions

Prediction of SNOs between AQUA and GOES-15 Satellite Orbit:

Table of predicted SNOs for the next 14.0 days since TLE Epoch: 6/14/2013
Index Date Time (AQUA) AQUA Lat,Lon GOES-15 Lat,Lon Distance(km) Time Diff (sec)
1 06/14/2013 22:41:32 -0.28,-136.37 0.08,-134.69 191.24 80
2 06/16/2013 22:29:18 0.34,-133.40 0.08,-134.60 136.21 80
3 06/17/2013 10:50:32 0.76,-138.56 -0.10,-134.58 452.02 80
4 06/18/2013 22:17:04 0.96,-130.44 0.08,-134.51 462.93 80
5 06/19/2013 10:38:18 0.13,-135.59 -0.10,-134.49 125.63 80
6 06/21/2013 10:26:04 -0.50,-132.63 -0.10,-134.38 199.85 80
7 06/21/2013 22:47:27 -0.63,-137.81 0.12,-134.34 395.00 80
8 06/23/2013 22:35:13 0.01,-134.85 0.12,-134.23 70.29 80
9 06/25/2013 22:22:58 0.60,-131.87 0.12,-134.11 254.15 80
10 06/26/2013 10:44:13 0.49,-137.03 -0.14,-134.09 334.07 80
11 06/28/2013 10:31:58 -0.10,-134.05 -0.13,-133.97 9.92 80




NCC Satellite Simultaneous Nadir Overpasses (SNOs) Prediction Service
